Terminal Aerodrome Forecast
Issued by NWS Grand Junction, CO

Home | Current Version | Previous Version | Text Only | Print | Product List | Glossary On
Versions: 1 2 3 4 5 6 7 8 9 10 11 12 13 14 15 16 17 18 19 20 21 22 23 24 25 26 27 28 29 30 31 32 33 34 35
000
FTUS45 KGJT 051126
TAFGJT
TAF
KGJT 051126Z 0512/0612 13012KT P6SM SCT070 BKN090
      TEMPO 0512/0515 VRB15KT -SHRA SCT050 BKN070
     FM051800 20006KT P6SM VCSH BKN110
     FM052100 16008KT P6SM -SHRA SCT050 BKN070
     FM060200 12005KT P6SM VCSH SCT060 BKN080=

USA.gov is the U.S. government's official web portal to all federal, state and local government web resources and services.